Location: Ferchesar
(52.6477°N, 12.4298°E)
Time: 20:58:10
(UTC+01:00)

Tiros 1 - Visible Passes

Search period start: 04 March 2021 00:00
Search period end: 14 March 2021 00:00
Orbit: 630 x 664 km, 48.4° (Epoch: 03 March)

Date Brightness Start Highest point End Pass type
(mag) Time Alt. Az. Time Alt. Az. Time Alt. Az.
04 Mar 9.1 03:35:53 22° SE 03:35:53 22° SE 03:38:36 10° E visible
04 Mar 7.8 05:13:32 22° SW 05:16:18 47° S 05:20:56 10° E visible
05 Mar 8.2 04:00:39 35° SSE 04:00:39 35° SSE 04:04:45 10° E visible
05 Mar 7.7 05:38:19 15° WSW 05:42:08 52° S 05:46:49 10° ESE visible
06 Mar 9.9 02:47:45 12° ESE 02:47:45 12° ESE 02:48:20 10° E visible
06 Mar 7.7 04:25:24 42° SSW 04:26:07 46° SSE 04:30:44 10° E visible
06 Mar 7.7 06:03:18 10° W 06:07:57 49° S 06:12:36 10° ESE visible
07 Mar 9.2 03:12:29 22° ESE 03:12:29 22° ESE 03:14:32 10° E visible
07 Mar 7.6 04:50:08 33° SW 04:51:56 52° S 04:56:37 10° ESE visible
08 Mar 8.3 03:37:12 36° SE 03:37:12 36° SE 03:40:32 10° E visible
08 Mar 7.6 05:14:51 21° WSW 05:17:46 50° S 05:22:25 10° ESE visible
09 Mar 10.1 02:24:18 10° E 02:24:18 10° E 02:24:19 10° E visible
09 Mar 7.5 04:01:56 51° SSE 04:01:56 51° SSE 04:06:25 10° E visible
09 Mar 7.9 05:39:35 13° W 05:43:34 41° SSW 05:48:05 10° SE visible
10 Mar 9.5 02:49:03 18° E 02:49:03 18° E 02:50:19 10° E visible
10 Mar 7.5 04:26:41 44° SW 04:27:35 51° S 04:32:15 10° ESE visible
11 Mar 8.8 03:13:49 28° ESE 03:13:49 28° ESE 03:16:13 10° E visible
11 Mar 7.7 04:51:28 29° WSW 04:53:23 42° SSW 04:57:55 10° SE visible
12 Mar 8.0 03:38:38 40° SE 03:38:38 40° SE 03:42:04 10° ESE visible
12 Mar 8.2 05:16:18 18° WSW 05:19:05 31° SSW 05:23:18 10° SE visible
13 Mar 10.0 02:25:52 11° E 02:25:52 11° E 02:26:02 10° E visible
13 Mar 7.7 04:03:32 43° S 04:03:32 43° S 04:07:44 10° ESE visible
13 Mar 8.7 05:41:12 10° W 05:44:40 20° SSW 05:48:10 10° SSE visible
